2023/03/15 00:00:00,59.0, 1.8
2023/03/15 00:10:00,59.0, 2.0
2023/03/15 00:20:00,59.0, 1.6
2023/03/15 00:30:00,59.0, 2.0
2023/03/15 00:40:00,59.0, 1.7
2023/03/15 00:50:00,59.0, 1.6
2023/03/15 01:00:00,59.0, 1.3
2023/03/15 01:10:00,59.0, 1.7
2023/03/15 01:20:00,59.0, 1.7
2023/03/15 01:30:00,59.0, 2.0
2023/03/15 01:40:00,59.0, 1.9
2023/03/15 01:50:00,59.1, 2.0
2023/03/15 02:00:00,59.1, 1.4
2023/03/15 02:10:00,59.1, 1.5
2023/03/15 02:20:00,59.0, 1.3
2023/03/15 02:30:00,59.1, 1.4
2023/03/15 02:40:00,59.1, 1.5
2023/03/15 02:50:00,59.1, 1.6
2023/03/15 03:00:00,59.1, 1.3
2023/03/15 03:10:00,59.2, 1.4
2023/03/15 03:20:00,59.2, 1.8
2023/03/15 03:30:00,59.1, 1.8
2023/03/15 03:40:00,59.1, 1.8
2023/03/15 03:50:00,59.1, 1.8
2023/03/15 04:00:00,59.1, 1.7
2023/03/15 04:10:00,59.1, 1.8
2023/03/15 04:20:00,59.2, 1.4
2023/03/15 04:30:00,59.1, 1.5
2023/03/15 04:40:00,59.1, 1.6
2023/03/15 04:50:00,59.2, 1.3
2023/03/15 05:00:00,59.2, 2.0
2023/03/15 05:10:00,59.2, 1.6
2023/03/15 05:20:00,59.1, 1.4
2023/03/15 05:30:00,59.1, 1.6
2023/03/15 05:40:00,59.2, 1.4
2023/03/15 05:50:00,59.3, 1.3
2023/03/15 06:00:00,59.3, 1.6
2023/03/15 06:10:00,59.2, 1.4
2023/03/15 06:20:00,59.2, 1.6
2023/03/15 06:30:00,59.2, 1.5
2023/03/15 06:40:00,59.2, 1.6
2023/03/15 06:50:00,59.1, 1.8
2023/03/15 07:00:00,59.1, 1.8
2023/03/15 07:10:00,59.2, 2.2
2023/03/15 07:20:00,59.1, 2.5
2023/03/15 07:30:00,59.1, 2.6
2023/03/15 07:40:00,59.2, 2.6
2023/03/15 07:50:00,59.1, 3.2
2023/03/15 08:00:00,59.2, 3.5
2023/03/15 08:10:00,59.0, 4.1
2023/03/15 08:20:00,59.1, 4.8
2023/03/15 08:30:00,59.0, 5.3
2023/03/15 08:40:00,59.1, 6.1
2023/03/15 08:50:00,59.1, 7.2
2023/03/15 09:00:00,58.9, 7.6
2023/03/15 09:10:00,58.6, 8.6
2023/03/15 09:20:00,58.5, 8.9
2023/03/15 09:30:00,58.3, 9.1
2023/03/15 09:40:00,57.8, 9.5
2023/03/15 09:50:00,57.5, 9.9
2023/03/15 10:00:00,57.3,10.2
2023/03/15 10:10:00,56.0,10.1
2023/03/15 10:20:00,---,10.5
2023/03/15 10:30:00, 0.0,10.9
2023/03/15 10:40:00,---,11.2
2023/03/15 10:50:00,54.3,11.6
2023/03/15 11:00:00,55.7,11.8
2023/03/15 11:10:00,55.9,12.3
2023/03/15 11:20:00,56.0,12.5
2023/03/15 11:30:00,55.9,13.1
2023/03/15 11:40:00,56.0,12.6
2023/03/15 11:50:00,55.9,12.6
2023/03/15 12:00:00,55.6,12.0
2023/03/15 12:10:00,55.5,12.0
2023/03/15 12:20:00,55.7,12.0
2023/03/15 12:30:00,55.5,11.5
2023/03/15 12:40:00,55.6,11.3
2023/03/15 12:50:00,55.4,11.3
2023/03/15 13:00:00,55.5,11.4
2023/03/15 13:10:00,54.9,11.6
2023/03/15 13:20:00,54.7,11.8
2023/03/15 13:30:00,52.9,11.6
2023/03/15 13:40:00,52.8,12.4
2023/03/15 13:50:00,52.8,12.4
2023/03/15 14:00:00,53.5,12.8
2023/03/15 14:10:00,52.7,12.6
2023/03/15 14:20:00,52.9,12.1
2023/03/15 14:30:00,53.5,11.5
2023/03/15 14:40:00,54.4,12.4
2023/03/15 14:50:00,54.5,12.7
2023/03/15 15:00:00,54.3,12.1
2023/03/15 15:10:00,54.3,10.2
2023/03/15 15:20:00,54.4,10.9
2023/03/15 15:30:00,54.3, 9.7
2023/03/15 15:40:00,54.3, 8.4
2023/03/15 15:50:00,54.2, 8.3
2023/03/15 16:00:00,54.2, 7.4
2023/03/15 16:10:00,54.3, 7.4
2023/03/15 16:20:00,54.2, 7.2
2023/03/15 16:30:00,54.2, 7.8
2023/03/15 16:40:00,54.3, 6.8
2023/03/15 16:50:00,54.3, 6.5
2023/03/15 17:00:00,54.2, 7.1
2023/03/15 17:10:00,54.2, 8.0
2023/03/15 17:20:00,54.2, 7.1
2023/03/15 17:30:00,54.3, 6.1
2023/03/15 17:40:00,54.4, 6.0
2023/03/15 17:50:00,54.7, 5.7
2023/03/15 18:00:00,54.7, 5.3
2023/03/15 18:10:00,54.9, 5.1
2023/03/15 18:20:00,54.6, 4.8
2023/03/15 18:30:00,54.5, 4.8
2023/03/15 18:40:00,54.5, 4.7
2023/03/15 18:50:00,54.6, 4.8
2023/03/15 19:00:00,54.7, 4.2
2023/03/15 19:10:00,54.7, 4.6
2023/03/15 19:20:00,54.7, 4.6
2023/03/15 19:30:00,54.7, 4.3
2023/03/15 19:40:00,54.7, 4.1
2023/03/15 19:50:00,54.6, 4.4
2023/03/15 20:00:00,54.6, 4.4
2023/03/15 20:10:00,54.5, 4.3
2023/03/15 20:20:00,54.7, 4.6
2023/03/15 20:30:00,54.7, 4.1
2023/03/15 20:40:00,54.0, 4.2
2023/03/15 20:50:00,53.8, 4.3
2023/03/15 21:00:00,53.9, 3.9
2023/03/15 21:10:00,53.9, 4.2
2023/03/15 21:20:00,53.9, 4.2
2023/03/15 21:30:00,53.9, 4.1
2023/03/15 21:40:00,53.9, 4.2
2023/03/15 21:50:00,54.1, 4.2
2023/03/15 22:00:00,54.1, 4.2
2023/03/15 22:10:00,53.9, 4.5
2023/03/15 22:20:00,53.8, 3.9
2023/03/15 22:30:00,53.9, 3.8
2023/03/15 22:40:00,54.0, 4.3
2023/03/15 22:50:00,54.0, 4.3
2023/03/15 23:00:00,54.1, 4.4
2023/03/15 23:10:00,54.2, 4.1
2023/03/15 23:20:00,54.1, 3.9
2023/03/15 23:30:00,54.0, 3.7
2023/03/15 23:40:00,53.9, 3.6
2023/03/15 23:50:00,53.8, 3.8
